Weather History for Newport Airport, OR

Change the Weather History Date:

Tuesday, October 8, 2013

  Actual Average Record
Temperature  
Mean Temperature 50 °F -  
Max Temperature 55 °F 59 °F 80 °F (1996)
Min Temperature 44 °F 48 °F 41 °F (2008)
Degree Days  
Heating Degree Days 16    
Moisture  
Dew Point 49 °F    
Average Humidity 92    
Maximum Humidity 100    
Minimum Humidity 82    
Precipitation  
Precipitation 0.24 in - - ()
Sea Level Pressure  
Sea Level Pressure 30.13 in    
Wind  
Wind Speed 4 mph (North)    
Max Wind Speed 16 mph    
Max Gust Speed 24 mph    
Visibility 8 miles    
Events Rain    
Averages and records for this station are not official NWS values.
T = Trace of Precipitation, MM = Missing Value Source: NWS Daily Summary

Daily Weather History Graph

Daily Weather History Graph

Search for Another Location

Airport:

Trip Planner

Search our weather history database for the weather conditions in past years. The results will help you decide how hot, cold, wet, or windy it might be!

Date:

Astronomy

Oct. 08, 2013 Rise Set
Actual Time 7:23 AM PDT 6:43 PM PDT
Civil Twilight 6:53 AM PDT 7:12 PM PDT
Nautical Twilight 6:20 AM PDT 7:46 PM PDT
Astronomical Twilight 5:46 AM PDT 8:20 PM PDT
Moon 11:32 AM PDT (10/8) 9:15 PM PDT (10/8)
Length of Visible Light 12h 18m
Length of Day
11h 20m
Waxing Crescent, 17% of the Moon is Illuminated
Oct 8
Waxing Crescent
Oct 11
First Quarter
Oct 18
Full
Oct 26
Last Quarter
Nov 3
New

Hourly Weather History & Observations

Time (PDT) Temp. Windchill Dew Point Humidity Pressure Visibility Wind Dir Wind Speed Gust Speed Precip Events Conditions
12:15 AM 51.8 °F - 50.0 °F 94% 30.21 in 10.0 mi Calm Calm - N/A   Overcast
12:35 AM 50.0 °F - 50.0 °F 100% 30.21 in 10.0 mi Calm Calm - N/A   Overcast
12:55 AM 51.8 °F - 50.0 °F 94% 30.21 in 10.0 mi NW 8.1 mph - N/A   Overcast
1:15 AM 53.6 °F - 50.0 °F 88% 30.21 in 7.0 mi North 4.6 mph - N/A   Overcast
1:35 AM 53.6 °F - 50.0 °F 88% 30.21 in 10.0 mi Calm Calm - N/A   Overcast
1:55 AM 53.6 °F - 50.0 °F 88% 30.21 in 7.0 mi NNW 11.5 mph 19.6 mph N/A Rain Rain
2:15 AM 51.8 °F - 50.0 °F 94% 30.22 in 10.0 mi Calm Calm - 0.01 in   Overcast
2:35 AM 51.8 °F - 50.0 °F 94% 30.21 in 7.0 mi NW 5.8 mph - 0.01 in   Overcast
2:55 AM 53.6 °F - 48.2 °F 82% 30.21 in 10.0 mi WNW 6.9 mph - 0.01 in   Overcast
3:15 AM 53.6 °F - 48.2 °F 82% 30.21 in 10.0 mi Calm Calm - N/A   Overcast
3:35 AM 51.8 °F - 48.2 °F 88% 30.21 in 10.0 mi Calm Calm - N/A   Overcast
3:55 AM 51.8 °F - 50.0 °F 94% 30.21 in 10.0 mi NE 4.6 mph - N/A   Overcast
4:15 AM 51.8 °F - 50.0 °F 94% 30.20 in 10.0 mi Calm Calm - N/A   Overcast
4:35 AM 51.8 °F - 50.0 °F 94% 30.20 in 10.0 mi Calm Calm - N/A   Overcast
4:55 AM 50.0 °F - 50.0 °F 100% 30.19 in 10.0 mi Calm Calm - N/A   Mostly Cloudy
5:15 AM 50.0 °F - 48.2 °F 94% 30.19 in 10.0 mi Calm Calm - N/A   Mostly Cloudy
5:35 AM 50.0 °F - 48.2 °F 94% 30.19 in 10.0 mi Calm Calm - N/A   Mostly Cloudy
5:55 AM 50.0 °F - 48.2 °F 94% 30.18 in 10.0 mi Calm Calm - N/A   Overcast
6:15 AM 50.0 °F - 48.2 °F 94% 30.18 in 10.0 mi Calm Calm - N/A   Overcast
6:35 AM 50.0 °F - 50.0 °F 100% 30.18 in 10.0 mi South 3.5 mph - N/A   Overcast
6:55 AM 50.0 °F - 50.0 °F 100% 30.18 in 10.0 mi Calm Calm - N/A   Overcast
7:15 AM 50.0 °F - 50.0 °F 100% 30.18 in 10.0 mi Calm Calm - N/A   Overcast
7:35 AM 51.8 °F - 50.0 °F 94% 30.17 in 10.0 mi WSW 4.6 mph - N/A   Overcast
7:55 AM 51.8 °F - 50.0 °F 94% 30.18 in 10.0 mi NW 9.2 mph - N/A   Overcast
8:15 AM 51.8 °F - 50.0 °F 94% 30.18 in 3.0 mi West 3.5 mph - N/A Rain Light Rain
8:35 AM 51.8 °F - 50.0 °F 94% 30.18 in 4.0 mi Calm Calm - N/A   Overcast
8:55 AM 51.8 °F - 50.0 °F 94% 30.18 in 2.0 mi NNW 3.5 mph - 0.02 in Rain Rain
9:15 AM 51.8 °F - 50.0 °F 94% 30.17 in 1.5 mi Calm Calm - 0.02 in   Heavy Drizzle
9:35 AM 51.8 °F - 51.8 °F 100% 30.16 in 7.0 mi Calm Calm - 0.03 in   Overcast
9:55 AM 51.8 °F - 51.8 °F 100% 30.16 in 7.0 mi Calm Calm - 0.03 in   Overcast
10:15 AM 51.8 °F - 51.8 °F 100% 30.15 in 7.0 mi South 4.6 mph - N/A   Overcast
10:35 AM 51.8 °F - 51.8 °F 100% 30.15 in 2.5 mi SSE 4.6 mph - N/A Rain Rain
10:55 AM 51.8 °F - 51.8 °F 100% 30.14 in 2.5 mi South 5.8 mph - 0.01 in   Heavy Drizzle
11:15 AM 53.6 °F - 51.8 °F 94% 30.14 in 4.0 mi SW 5.8 mph - N/A   Overcast
11:35 AM 53.6 °F - 53.6 °F 100% 30.14 in 3.0 mi SW 6.9 mph - N/A   Overcast
11:55 AM 53.6 °F - 53.6 °F 100% 30.14 in 4.0 mi West 4.6 mph - N/A   Overcast
12:15 PM 53.6 °F - 50.0 °F 88% 30.13 in 7.0 mi NW 10.4 mph - N/A   Overcast
12:35 PM 53.6 °F - 50.0 °F 88% 30.13 in 3.0 mi NW 16.1 mph 24.2 mph N/A Rain Light Rain
12:55 PM 53.6 °F - 51.8 °F 94% 30.13 in 7.0 mi NNW 5.8 mph - N/A   Overcast
1:15 PM 53.6 °F - 50.0 °F 88% 30.12 in 5.0 mi NNW 9.2 mph - N/A   Overcast
1:35 PM 55.4 °F - 50.0 °F 82% 30.11 in 10.0 mi NW 12.7 mph - N/A   Overcast
1:55 PM 55.4 °F - 50.0 °F 82% 30.11 in 10.0 mi WNW 10.4 mph - N/A   Overcast
2:15 PM 53.6 °F - 48.2 °F 82% 30.10 in 7.0 mi NNW 10.4 mph - N/A   Overcast
2:35 PM 53.6 °F - 50.0 °F 88% 30.10 in 2.0 mi NNW 8.1 mph - 0.10 in Rain Heavy Rain
2:55 PM 53.6 °F - 50.0 °F 88% 30.09 in 5.0 mi NNW 10.4 mph - 0.13 in   Overcast
3:15 PM 53.6 °F - 50.0 °F 88% 30.09 in 7.0 mi North 9.2 mph 17.3 mph 0.01 in Rain Light Rain
3:35 PM 53.6 °F - 51.8 °F 94% 30.09 in 5.0 mi North 4.6 mph - 0.01 in Rain Light Rain
3:55 PM 53.6 °F - 51.8 °F 94% 30.08 in 7.0 mi North 5.8 mph - 0.01 in   Overcast
4:15 PM 51.8 °F - 48.2 °F 88% 30.09 in 5.0 mi NNE 4.6 mph 9.2 mph 0.01 in Rain Light Rain
4:35 PM 51.8 °F - 48.2 °F 88% 30.09 in 10.0 mi North 3.5 mph - 0.01 in   Mostly Cloudy
4:55 PM 51.8 °F - 50.0 °F 94% 30.08 in 10.0 mi Calm Calm - 0.01 in   Mostly Cloudy
5:15 PM 53.6 °F - 50.0 °F 88% 30.07 in - North 6.9 mph - N/A   Unknown
5:35 PM 53.6 °F - 50.0 °F 88% 30.07 in 7.0 mi NNW 6.9 mph - N/A   Overcast
5:55 PM 50.0 °F - 46.4 °F 87% 30.07 in 4.0 mi NNE 8.1 mph 18.4 mph 0.02 in Rain Rain
6:15 PM 50.0 °F - 46.4 °F 87% 30.06 in 10.0 mi ENE 5.8 mph - N/A   Mostly Cloudy
6:35 PM 51.8 °F - 48.2 °F 88% 30.07 in 7.0 mi NE 6.9 mph - N/A   Overcast
6:55 PM 50.0 °F - 46.4 °F 87% 30.07 in 10.0 mi NNE 4.6 mph - N/A   Overcast
7:15 PM 51.8 °F - 46.4 °F 82% 30.07 in 10.0 mi North 5.8 mph - N/A   Overcast
7:35 PM 50.0 °F - 46.4 °F 87% 30.07 in 10.0 mi NNE 6.9 mph - N/A   Mostly Cloudy
7:55 PM 50.0 °F - 46.4 °F 87% 30.07 in 10.0 mi North 11.5 mph 17.3 mph N/A   Mostly Cloudy
8:15 PM 51.8 °F - 46.4 °F 82% 30.07 in 10.0 mi NE 4.6 mph - N/A   Overcast
8:35 PM 50.0 °F - 46.4 °F 87% 30.07 in 10.0 mi NE 3.5 mph - N/A   Scattered Clouds
8:55 PM 46.4 °F 45.2 °F 44.6 °F 93% 30.06 in 10.0 mi ENE 3.5 mph - N/A   Scattered Clouds
9:15 PM 46.4 °F 43.5 °F 44.6 °F 93% 30.06 in 10.0 mi NE 5.8 mph - N/A   Scattered Clouds
9:35 PM 48.2 °F - 46.4 °F 93% 30.06 in 10.0 mi ENE 4.6 mph - N/A   Mostly Cloudy
9:55 PM 46.4 °F 44.3 °F 44.6 °F 93% 30.06 in 10.0 mi East 4.6 mph - N/A   Mostly Cloudy
10:15 PM 46.4 °F 44.3 °F 44.6 °F 93% 30.06 in 10.0 mi East 4.6 mph - N/A   Clear
10:35 PM 44.6 °F 40.7 °F 44.6 °F 100% 30.06 in 10.0 mi ENE 6.9 mph - N/A   Clear
10:55 PM 46.4 °F 45.2 °F 42.8 °F 87% 30.07 in 10.0 mi ENE 3.5 mph - N/A   Clear
11:15 PM 44.6 °F 42.2 °F 42.8 °F 93% 30.06 in 10.0 mi NNE 4.6 mph - N/A   Clear
11:35 PM 44.6 °F 41.4 °F 42.8 °F 93% 30.06 in 10.0 mi NE 5.8 mph - N/A   Clear
11:55 PM 44.6 °F 40.7 °F 42.8 °F 93% 30.06 in 10.0 mi East 6.9 mph - N/A   Clear